Other Public Products
Issued by NWS Grand Forks, ND

Home | Current Version | Previous Version | Graphics & Text | Print | Product List | Glossary On
Versions: 1 2 3 4 5 6 7 8 9 10 11 12 13 14 15 16 17 18 19 20 21 22 23 24 25 26 27 28 29 30 31 32 33 34 35 36 37 38 39 40 41 42 43 44 45 46 47 48 49 50
196
FPUS83 KFGF 140910
OPUFGF
PRAIRIE TO PINES WEATHER ROUNDUP
NATIONAL WEATHER SERVICE EASTERN NORTH DAKOTA/GRAND FORKS ND
300 AM CST SUN FEB 14 2016

 **SATELLITE DATA USED TO AUGMENT SKY COVER AT AUTOMATED STATIONS**
 *****  WEATHER ACROSS EASTERN NORTH DAKOTA  *****

CITY           SKY/WX    TMP DP  RH WIND       PRES   REMARKS
GRAND FORKS    CLOUDY    13   7  77 S21       29.95F BLWGSNOWWCI  -5
GRAND FORKS AF CLOUDY    11   7  81 S21       29.93F WCI  -7
GRAND CITY NWS NOT AVBL
BUXTON         NOT AVBL
DEVILS LAKE    LGT SNOW  12   9  87 S16       29.82F FOG     WCI  -5
FARGO          LGT SNOW  14   7  73 SE21G29   29.98F WCI  -4
WAHPETON ARPT  CLOUDY    12   9  85 SE17G23   29.99F WCI  -5
$$

 *****  WEATHER ACROSS CENTRAL AND WESTERN NORTH DAKOTA  *****

CITY           SKY/WX    TMP DP  RH WIND       PRES   REMARKS
JAMESTOWN      LGT SNOW  14   9  80 S21       29.82F WCI  -4
BISMARCK       CLOUDY    21  18  88 SE3       29.79S FOG
MINOT          CLOUDY    23  17  78 W5        29.73S WCI  17
MINOT AFB      CLOUDY    17  17  99 CALM      29.73F
GARRISON         N/A     26  24  92 W14       29.74F WCI  14
WILLISTON      CLOUDY    31  27  85 CALM      29.78F
DICKINSON      CLOUDY    32  29  88 NW22G30   29.76S WCI  19
HETTINGER      CLOUDY    34  29  82 NW23G35   29.80S WCI  22
$$

 *****  OTHER OBSERVATIONS NORTHEAST NORTH DAKOTA  *****

CITY           SKY/WX    TMP DP  RH WIND       PRES   REMARKS
WALHALLA         N/A     10  10 100 SE14      29.90F WCI  -5
LANGDON        NOT AVBL
CAVALIER       NOT AVBL
GRAFTON        NOT AVBL
CANDO          NOT AVBL
FORT TOTTEN      N/A     12   8  85 S14       29.95  WCI  -3
ROLLA          LGT SNOW  10   9  92 S13       29.76F VSB 1   WCI  -5
RUGBY          NOT AVBL
 ***** THE ABOVE OBSERVATIONS ARE NON NWS ARE NOT QUALITY
        CONTROLLED AND MAY MIS-REPORT RAIN FOR SNOW...
$$

 *****  OTHER OBSERVATIONS SOUTHEAST NORTH DAKOTA *****

CITY           SKY/WX    TMP DP  RH WIND       PRES   REMARKS
COOPERSTOWN    NOT AVBL
VALLEY CITY    NOT AVBL
OAKES          LGT SNOW  14  12  92 S14       29.88F VSB 1   WCI  -1
GWINNER        CLOUDY    14  12  92 SE12      29.91F VSB 1   WCI   0
SHEYENNE NWR     N/A     12   8  82 S14       29.95S WCI  -3
BUFFALO        NOT AVBL
WYNDMERE         N/A     12   9  85 S20         N/A  WCI  -6
 ***** THE ABOVE OBSERVATIONS ARE NON NWS ARE NOT QUALITY
       CONTROLLED AND MAY MIS-REPORT RAIN FOR SNOW...
$$

  *****  WEATHER ACROSS NORTHERN MINNESOTA  *****

CITY           SKY/WX    TMP DP  RH WIND       PRES   REMARKS
FLAG ISLAND    CLOUDY     3  -6  66 S22       30.03F WCI -19
WARROAD        LGT SNOW   9   0  66 S14       30.02F WCI  -8
ROSEAU         LGT SNOW  10   3  72 S13       30.00F WCI  -5
HALLOCK        LGT SNOW  12   9  85 SE18      29.96F WCI  -5
THF RVR FALLS  CLOUDY    10   5  79 SE14      29.99F WCI  -5
HALSTAD        NOT AVBL
FOSSTON        LGT SNOW   9   0  66 SE13G20   29.99F WCI  -7
BAUDETTE       CLOUDY     4 -10  52 SE13      30.04F WCI -13
WASKISH        CLOUDY     7  -8  51 SE9       30.06F WCI  -7
CROOKSTON      CLOUDY    12   9  85 S17       30.00F WCI  -5
$$
  *****  WEATHER ACROSS CENTRAL AND WEST MINNESOTA  *****

CITY           SKY/WX    TMP DP  RH WIND       PRES   REMARKS
BEMIDJI        CLOUDY     6  -4  61 SE10      30.04F WCI  -8
PARK RAPIDS    CLOUDY    10  -4  53 SE16      30.04F WCI  -7
WADENA         FLURRIES   9   0  66 SE13      30.04F WCI  -7
DETROIT LAKES  CLOUDY    12   5  73 SE14G21   29.99F WCI  -3
MOORHEAD       MIX PCPN  12   7  79 S20G29    29.99F WCI  -6
FERGUS FALLS   FLURRIES  12   7  79 SE17G23   30.03F WCI  -5
ELBOW LAKE     CLOUDY    10   6  82 E21       30.00F WCI  -9
MORRIS MN      LGT SNOW  10   7  85 SE18      30.00F WCI  -8
STAPLES        CLOUDY     9  -6  52 SE9       30.07F WCI  -5
WHEATON        LGT SNOW  12  10  92 SE22      30.01F WCI  -7
$$
  *****  WEATHER ELSEWHERE ACROSS MINNESOTA  *****

CITY           SKY/WX    TMP DP  RH WIND       PRES   REMARKS
DULUTH         CLOUDY    -2 -15  54 S6        30.19F WCI -14
INTRNTL FALLS  CLOUDY   -12 -19  71 SE8       30.12F WCI -29
ELY            CLOUDY   -20 -26  76 CALM      30.20F
CLOQUET        CLOUDY    -4 -17  54 E3        30.20F
BRAINERD       CLOUDY     8  -6  52 SE7       30.12F WCI  -3
HIBBING        CLOUDY   -16 -19  87 SE5       30.17F WCI -29
ALEXANDRIA     FLURRIES   9   2  73 SE15      30.03F WCI  -8
SAINT CLOUD    CLOUDY    10  -3  55 SE13      30.14F WCI  -5
MINNEAPOLIS    CLOUDY    10  -3  55 E12       30.21F WCI  -5
$$

  *****  WEATHER ACROSS SOUTH DAKOTA  *****

CITY           SKY/WX    TMP DP  RH WIND       PRES   REMARKS
SIOUX FALLS    CLOUDY    14   8  77 SE15      29.95F WCI  -1
BROOKINGS      LGT SNOW  11   7  84 S21G26    29.92F FOG     WCI  -8
WATERTOWN      SNOW      12   7  80 S17       29.90F VSB 1/2 WCI  -5
HURON          CLOUDY    14  11  87 SE14      29.89F WCI  -1
SISSETON         N/A     11   8  88 S17       29.95F WCI  -6
ABERDEEN       FOG       15  11  83 MISG      29.88F VSB 1/2
MITCHELL       LGT SNOW  16  12  84 SE18      29.90F FOG     WCI   0
PIERRE         CLOUDY    24  23  96 SE6       29.80S FOG     WCI  17
MOBRIDGE       CLOUDY    20  17  88 SE10      29.77F FOG     WCI   9
RAPID CITY     CLEAR     37  26  64 NW17      29.86F
$$

  *****  SOME WEATHER IN NEARBY STATES *****

CITY           SKY/WX    TMP DP  RH WIND       PRES   REMARKS
GLASGOW MT     CLEAR     28  24  85 W8        29.81F WCI  20
GREAT FALLS MT CLOUDY    38  23  55 SW18      29.85F
CHEYENNE WY    CLEAR     32  15  49 NW9       29.98F WCI  24
SCOTTSBLUFF NE CLEAR     30  24  78 W8        30.01F WCI  22
OMAHA NE       LGT SNOW  20   7  57 SE24      30.05F WCI   3
DES MOINES IA  CLOUDY    16   9  74 SE12G21   30.15F WCI   3
DAVENPORT IA   CLOUDY    18   1  47 SE15      30.32F WCI   4
CHICAGO IL     CLOUDY    10   1  67 SE7       30.41F WCI  -1
EAU CLAIRE WI  CLOUDY    -4 -13  65 CALM      30.29F
LA CROSSE WI   CLOUDY     7  -5  57 E7        30.32F WCI  -5
$$

  *****  SOME NATIONAL WEATHER *****

CITY           SKY/WX    TMP DP  RH WIND       PRES   REMARKS
LA GUARDIA NY  PTCLDY     5  -7  57 NW16G24   30.38R WCI -14
RALEIGH NC     CLEAR     17  -2  43 CALM      30.48R
ATLANTA GA     CLOUDY    29   7  39 NE9       30.33F WCI  20
NEW ORLEANS LA PTCLDY    48  37  65 E3        30.24F
OKLAHOMA CITY  PTCLDY    46  38  73 S16       29.88F
ALBUQUERQUE NM CLOUDY    45  13  27 CALM      30.11R
SALT LAKE CITY FOG       29  29 100 NW3       30.27F VSB 1/4
LOS ANGELES CA FOG       51  49  92 W3        30.06S VSB 1
BOISE ID       LGT RAIN  44  35  70 S7        30.19R
SEATTLE WA     LGT RAIN  47  46  97 S16       30.12R FOG
$$

*** WEATHER ACROSS MANITOBA...SASKATCHEWAN AND ONTARIO ***
                ***ONTARIO***

CITY           SKY/WX    TMP DP  RH WIND       PRES   REMARKS
GERALDTON      CLEAR    -29 -35  75 CALM      30.27F
THUNDER BAY    FLURRIES -13 -18  77 W2        30.34F
SIOUX LOOKOUT  CLEAR    -11 -17  77 SE7       30.13F WCI -26
TORONTO        CLEAR     -9 -22  54 N5        30.51S WCI -21
BIG TROUT LK   PTCLDY    -6 -13  71 S7        30.09F WCI -20
PICKLE LAKE    NOT AVBL
DRYDEN         CLEAR     -8 -15  71 S12       30.10F WCI -27
KENORA         CLOUDY     0 -11  60 S10       30.02F WCI -17
$$
                *** MANITOBA***

CITY           SKY/WX    TMP DP  RH WIND       PRES   REMARKS
BRANDON        LGT SNOW  10   7  85 SE8       29.79F VSB 3/4 WCI  -1
DAUPHIN        FLURRIES   9   7  92 SE5       29.80F WCI   0
ISLAND LAKE    CLEAR     -2 -13  60 S10       29.93  WCI -19
PILOT MOUND      N/A     10   7  85 S18         N/A  WCI  -8
THE PAS        CLOUDY     9   1  72 S10       29.71F WCI  -6
THOMPSON       FLURRIES   1  -6  71 S9        29.73F WCI -14
WINNIPEG       CLOUDY    12   3  67 S24G31    29.94F WCI  -8
LYNN LAKE      FLURRIES   7   3  85 S10       29.54F WCI  -8
CHURCHILL      CLOUDY     5  -4  66 SW12G21   29.74F WCI -11
$$
                ***SASKATCHEWAN***

CITY           SKY/WX    TMP DP  RH WIND       PRES   REMARKS
ESTEVAN        NOT AVBL
KINDERSLEY     MOCLDY    21  19  93 S6        29.69F WCI  14
LLOYDMINSTER   PTCLDY    28  23  80 W14       29.63F WCI  17
PRINCE ALBERT  CLOUDY    21  19  93 SW6       29.66F FOG     WCI  14
REGINA         CLOUDY    23  23 100 NW5       29.73S WCI  17
YORKTON        FLURRIES  12  10  92 S8        29.70F WCI   1
N. BATTLEFORD  LGT SNOW  19 N/A N/A SE2       29.68F VSC1F1C2F2C3F3C4F4C5F5C6F6C7F7C8F8C9F9CaFaCbFbCcFcCdFdCe!



USA.gov is the U.S. government's official web portal to all federal, state and local government web resources and services.